Time,TemperatureF,DewpointF,PressureIn,WindDirection,WindDirectionDegrees,WindSpeedMPH,WindSpeedGustMPH,Humidity,HourlyPrecipIn,Conditions,Clouds,dailyrainin,SoftwareType,DateUTC
2013-01-26 00:07:00,22.7,21.0,30.27,WSW,240,0.0,0.0,94,0.00,,,0.00,weatherlink.com 1.10,2013-01-26 06:07:00,
2013-01-26 00:22:00,22.6,21.0,30.27,WSW,240,0.0,0.0,94,0.00,,,0.00,weatherlink.com 1.10,2013-01-26 06:22:00,
2013-01-26 00:37:00,22.4,21.0,30.27,WSW,240,0.0,0.0,94,0.00,,,0.00,weatherlink.com 1.10,2013-01-26 06:37:00,
2013-01-26 00:52:00,22.3,21.0,30.27,WSW,240,0.0,0.0,94,0.00,,,0.00,weatherlink.com 1.10,2013-01-26 06:52:00,
2013-01-26 01:07:00,22.2,21.0,30.27,WSW,240,0.0,0.0,94,0.00,,,0.00,weatherlink.com 1.10,2013-01-26 07:07:00,
2013-01-26 01:22:00,22.0,21.0,30.26,WSW,240,0.0,0.0,94,0.00,,,0.00,weatherlink.com 1.10,2013-01-26 07:22:00,
2013-01-26 01:37:00,21.9,21.0,30.27,WSW,240,0.0,0.0,94,0.00,,,0.00,weatherlink.com 1.10,2013-01-26 07:37:00,
2013-01-26 01:52:00,21.7,20.0,30.27,WSW,240,0.0,0.0,94,0.00,,,0.00,weatherlink.com 1.10,2013-01-26 07:52:00,
2013-01-26 02:07:00,21.7,20.0,30.27,WSW,240,0.0,0.0,94,0.00,,,0.00,weatherlink.com 1.10,2013-01-26 08:07:00,
2013-01-26 02:22:00,21.6,20.0,30.27,WSW,240,0.0,0.0,94,0.00,,,0.00,weatherlink.com 1.10,2013-01-26 08:22:00,
2013-01-26 02:37:00,21.6,20.0,30.28,WSW,240,0.0,0.0,94,0.00,,,0.00,weatherlink.com 1.10,2013-01-26 08:37:00,
2013-01-26 02:52:00,21.6,20.0,30.28,WSW,240,0.0,0.0,94,0.00,,,0.00,weatherlink.com 1.10,2013-01-26 08:52:00,
2013-01-26 03:07:00,21.8,21.0,30.28,WSW,240,0.0,0.0,95,0.00,,,0.00,weatherlink.com 1.10,2013-01-26 09:07:00,
2013-01-26 03:22:00,22.1,21.0,30.28,WSW,240,0.0,0.0,95,0.00,,,0.00,weatherlink.com 1.10,2013-01-26 09:22:00,
2013-01-26 03:37:00,22.7,22.0,30.28,WSW,240,0.0,0.0,95,0.00,,,0.00,weatherlink.com 1.10,2013-01-26 09:37:00,
2013-01-26 03:52:00,23.0,22.0,30.28,WSW,240,0.0,0.0,95,0.00,,,0.00,weatherlink.com 1.10,2013-01-26 09:52:00,
2013-01-26 04:07:00,23.4,22.0,30.28,WSW,240,0.0,0.0,95,0.00,,,0.00,weatherlink.com 1.10,2013-01-26 10:07:00,
2013-01-26 04:22:00,23.9,23.0,30.29,WSW,240,0.0,0.0,96,0.00,,,0.00,weatherlink.com 1.10,2013-01-26 10:22:00,
2013-01-26 04:38:00,24.6,24.0,30.29,WSW,240,0.0,1.0,96,0.00,,,0.00,weatherlink.com 1.10,2013-01-26 10:38:00,
2013-01-26 04:52:00,24.9,24.0,30.29,WSW,240,0.0,0.0,96,0.00,,,0.00,weatherlink.com 1.10,2013-01-26 10:52:00,
2013-01-26 05:08:00,25.1,24.0,30.30,WSW,240,0.0,0.0,95,0.00,,,0.00,weatherlink.com 1.10,2013-01-26 11:08:00,
2013-01-26 05:22:00,25.2,24.0,30.30,WSW,240,0.0,0.0,95,0.00,,,0.00,weatherlink.com 1.10,2013-01-26 11:22:00,
2013-01-26 05:38:00,25.3,24.0,30.30,WSW,240,0.0,0.0,95,0.00,,,0.00,weatherlink.com 1.10,2013-01-26 11:38:00,
2013-01-26 05:53:00,25.4,24.0,30.31,WSW,240,0.0,0.0,95,0.00,,,0.00,weatherlink.com 1.10,2013-01-26 11:53:00,
2013-01-26 06:07:00,25.5,24.0,30.31,WSW,240,0.0,0.0,95,0.00,,,0.00,weatherlink.com 1.10,2013-01-26 12:07:00,
2013-01-26 06:23:00,25.3,24.0,30.32,WSW,240,0.0,0.0,95,0.00,,,0.00,weatherlink.com 1.10,2013-01-26 12:23:00,
2013-01-26 06:37:00,24.6,23.0,30.32,WSW,240,0.0,0.0,94,0.00,,,0.00,weatherlink.com 1.10,2013-01-26 12:37:00,
2013-01-26 06:52:00,24.3,23.0,30.33,WSW,240,0.0,0.0,94,0.00,,,0.00,weatherlink.com 1.10,2013-01-26 12:52:00,
2013-01-26 07:08:00,24.2,23.0,30.33,WSW,240,0.0,0.0,95,0.00,,,0.00,weatherlink.com 1.10,2013-01-26 13:08:00,
2013-01-26 07:22:00,24.2,23.0,30.33,WSW,240,0.0,0.0,95,0.00,,,0.00,weatherlink.com 1.10,2013-01-26 13:22:00,
2013-01-26 07:37:00,24.2,23.0,30.34,WSW,240,0.0,0.0,95,0.00,,,0.00,weatherlink.com 1.10,2013-01-26 13:37:00,
2013-01-26 07:53:00,25.1,24.0,30.34,WSW,240,0.0,0.0,96,0.00,,,0.00,weatherlink.com 1.10,2013-01-26 13:53:00,
2013-01-26 08:08:00,26.7,26.0,30.34,WSW,240,0.0,0.0,96,0.00,,,0.00,weatherlink.com 1.10,2013-01-26 14:08:00,
2013-01-26 08:23:00,29.4,29.0,30.35,WSW,240,0.0,0.0,97,0.00,,,0.00,weatherlink.com 1.10,2013-01-26 14:23:00,
2013-01-26 08:38:00,30.9,30.0,30.35,WSW,240,0.0,0.0,97,0.00,,,0.00,weatherlink.com 1.10,2013-01-26 14:38:00,
2013-01-26 08:53:00,32.3,31.0,30.35,North,352,0.0,3.0,94,0.00,,,0.00,weatherlink.com 1.10,2013-01-26 14:53:00,
2013-01-26 09:08:00,33.6,31.0,30.35,NNW,345,3.0,4.0,89,0.00,,,0.00,weatherlink.com 1.10,2013-01-26 15:08:00,
2013-01-26 09:23:00,34.6,30.0,30.36,NE,34,0.0,4.0,84,0.00,,,0.00,weatherlink.com 1.10,2013-01-26 15:23:00,
2013-01-26 09:38:00,36.2,30.0,30.36,NNW,330,0.0,5.0,79,0.00,,,0.00,weatherlink.com 1.10,2013-01-26 15:38:00,
2013-01-26 09:53:00,38.0,29.0,30.37,ENE,71,1.0,6.0,69,0.00,,,0.00,weatherlink.com 1.10,2013-01-26 15:53:00,
2013-01-26 10:08:00,38.4,29.0,30.38,North,2,4.0,7.0,69,0.00,,,0.00,weatherlink.com 1.10,2013-01-26 16:08:00,
2013-01-26 10:23:00,38.8,29.0,30.38,NW,317,3.0,6.0,68,0.00,,,0.00,weatherlink.com 1.10,2013-01-26 16:23:00,
2013-01-26 10:38:00,39.8,30.0,30.38,NE,56,2.0,7.0,68,0.00,,,0.00,weatherlink.com 1.10,2013-01-26 16:38:00,
2013-01-26 10:53:00,39.8,29.0,30.37,NE,53,6.0,7.0,65,0.00,,,0.00,weatherlink.com 1.10,2013-01-26 16:53:00,
2013-01-26 11:09:00,40.5,28.0,30.38,North,354,2.0,9.0,62,0.00,,,0.00,weatherlink.com 1.10,2013-01-26 17:09:00,
2013-01-26 11:24:00,40.8,29.0,30.38,North,6,1.0,8.0,64,0.00,,,0.00,weatherlink.com 1.10,2013-01-26 17:24:00,
2013-01-26 11:38:00,41.9,29.0,30.37,North,355,7.0,7.0,61,0.00,,,0.00,weatherlink.com 1.10,2013-01-26 17:38:00,
2013-01-26 11:53:00,41.8,28.0,30.37,WNW,303,0.0,6.0,59,0.00,,,0.00,weatherlink.com 1.10,2013-01-26 17:53:00,
2013-01-26 12:08:00,43.1,27.0,30.36,NNW,342,1.0,6.0,54,0.00,,,0.00,weatherlink.com 1.10,2013-01-26 18:08:00,
2013-01-26 12:24:00,44.0,29.0,30.35,WNW,288,3.0,6.0,57,0.00,,,0.00,weatherlink.com 1.10,2013-01-26 18:24:00,
2013-01-26 12:39:00,45.0,29.0,30.34,NW,308,0.0,6.0,53,0.00,,,0.00,weatherlink.com 1.10,2013-01-26 18:39:00,
2013-01-26 12:54:00,45.1,28.0,30.34,NW,317,2.0,8.0,51,0.00,,,0.00,weatherlink.com 1.10,2013-01-26 18:54:00,
2013-01-26 13:09:00,45.6,29.0,30.34,NW,315,2.0,6.0,53,0.00,,,0.00,weatherlink.com 1.10,2013-01-26 19:09:00,
2013-01-26 13:24:00,46.1,27.0,30.33,NNW,330,0.0,8.0,47,0.00,,,0.00,weatherlink.com 1.10,2013-01-26 19:24:00,
2013-01-26 13:39:00,46.2,28.0,30.33,NW,309,4.0,8.0,50,0.00,,,0.00,weatherlink.com 1.10,2013-01-26 19:39:00,
2013-01-26 13:54:00,46.3,28.0,30.33,NW,319,1.0,7.0,50,0.00,,,0.00,weatherlink.com 1.10,2013-01-26 19:54:00,
2013-01-26 14:09:00,46.0,28.0,30.32,North,10,5.0,5.0,49,0.00,,,0.00,weatherlink.com 1.10,2013-01-26 20:09:00,
2013-01-26 14:24:00,46.1,29.0,30.33,WSW,246,3.0,5.0,52,0.00,,,0.00,weatherlink.com 1.10,2013-01-26 20:24:00,
2013-01-26 14:39:00,45.2,26.0,30.32,North,355,2.0,5.0,48,0.00,,,0.00,weatherlink.com 1.10,2013-01-26 20:39:00,
2013-01-26 14:54:00,44.7,26.0,30.32,NNE,25,2.0,5.0,49,0.00,,,0.00,weatherlink.com 1.10,2013-01-26 20:54:00,
2013-01-26 15:09:00,44.6,26.0,30.32,ENE,59,5.0,6.0,49,0.00,,,0.00,weatherlink.com 1.10,2013-01-26 21:09:00,
2013-01-26 15:24:00,44.6,26.0,30.32,NNW,341,2.0,6.0,49,0.00,,,0.00,weatherlink.com 1.10,2013-01-26 21:24:00,
2013-01-26 15:39:00,44.6,27.0,30.32,NE,56,3.0,4.0,50,0.00,,,0.00,weatherlink.com 1.10,2013-01-26 21:39:00,
2013-01-26 15:54:00,44.5,27.0,30.31,NE,36,0.0,6.0,51,0.00,,,0.00,weatherlink.com 1.10,2013-01-26 21:54:00,
2013-01-26 16:09:00,44.3,27.0,30.32,East,85,3.0,4.0,50,0.00,,,0.00,weatherlink.com 1.10,2013-01-26 22:09:00,
2013-01-26 16:24:00,43.9,26.0,30.32,NE,55,1.0,6.0,50,0.00,,,0.00,weatherlink.com 1.10,2013-01-26 22:24:00,
2013-01-26 16:39:00,43.2,26.0,30.32,ENE,69,0.0,5.0,52,0.00,,,0.00,weatherlink.com 1.10,2013-01-26 22:39:00,
2013-01-26 16:54:00,42.5,27.0,30.32,ENE,61,0.0,2.0,55,0.00,,,0.00,weatherlink.com 1.10,2013-01-26 22:54:00,
2013-01-26 17:09:00,40.9,27.0,30.33,ENE,61,0.0,0.0,58,0.00,,,0.00,weatherlink.com 1.10,2013-01-26 23:09:00,
2013-01-26 17:24:00,38.3,28.0,30.32,ENE,61,0.0,0.0,66,0.00,,,0.00,weatherlink.com 1.10,2013-01-26 23:24:00,
2013-01-26 17:39:00,35.1,27.0,30.32,ENE,61,0.0,0.0,72,0.00,,,0.00,weatherlink.com 1.10,2013-01-26 23:39:00,
2013-01-26 17:54:00,32.9,26.0,30.33,ENE,61,0.0,1.0,75,0.00,,,0.00,weatherlink.com 1.10,2013-01-26 23:54:00,
2013-01-26 18:09:00,32.0,26.0,30.34,ENE,61,0.0,0.0,77,0.00,,,0.00,weatherlink.com 1.10,2013-01-27 00:09:00,
2013-01-26 18:24:00,31.6,25.0,30.34,ENE,61,0.0,0.0,77,0.00,,,0.00,weatherlink.com 1.10,2013-01-27 00:24:00,
2013-01-26 18:39:00,30.7,25.0,30.35,ENE,61,0.0,0.0,80,0.00,,,0.00,weatherlink.com 1.10,2013-01-27 00:39:00,
2013-01-26 18:54:00,30.1,25.0,30.35,ENE,61,0.0,0.0,80,0.00,,,0.00,weatherlink.com 1.10,2013-01-27 00:54:00,
2013-01-26 19:09:00,29.6,24.0,30.35,ENE,61,0.0,0.0,81,0.00,,,0.00,weatherlink.com 1.10,2013-01-27 01:09:00,
2013-01-26 19:24:00,29.1,24.0,30.36,ENE,61,0.0,0.0,82,0.00,,,0.00,weatherlink.com 1.10,2013-01-27 01:24:00,
2013-01-26 19:39:00,28.8,24.0,30.36,ENE,61,0.0,0.0,81,0.00,,,0.00,weatherlink.com 1.10,2013-01-27 01:39:00,
2013-01-26 19:54:00,28.8,24.0,30.35,NE,51,0.0,1.0,81,0.00,,,0.00,weatherlink.com 1.10,2013-01-27 01:54:00,
2013-01-26 20:09:00,29.0,24.0,30.34,NE,54,0.0,3.0,81,0.00,,,0.00,weatherlink.com 1.10,2013-01-27 02:09:00,
2013-01-26 20:24:00,29.3,24.0,30.34,NE,50,0.0,1.0,79,0.00,,,0.00,weatherlink.com 1.10,2013-01-27 02:24:00,
2013-01-26 20:39:00,29.2,23.0,30.35,ENE,59,1.0,1.0,79,0.00,,,0.00,weatherlink.com 1.10,2013-01-27 02:39:00,
2013-01-26 20:54:00,29.3,23.0,30.35,ENE,58,2.0,3.0,78,0.00,,,0.00,weatherlink.com 1.10,2013-01-27 02:54:00,
2013-01-26 21:09:00,30.4,23.0,30.35,NE,34,1.0,5.0,75,0.00,,,0.00,weatherlink.com 1.10,2013-01-27 03:09:00,
2013-01-26 21:24:00,30.6,24.0,30.35,ENE,59,1.0,3.0,75,0.00,,,0.00,weatherlink.com 1.10,2013-01-27 03:24:00,
2013-01-26 21:39:00,30.1,23.0,30.35,ENE,59,0.0,2.0,76,0.00,,,0.00,weatherlink.com 1.10,2013-01-27 03:39:00,
2013-01-26 21:54:00,29.4,23.0,30.35,ENE,71,0.0,3.0,78,0.00,,,0.00,weatherlink.com 1.10,2013-01-27 03:54:00,
2013-01-26 22:09:00,28.9,23.0,30.36,ENE,77,0.0,1.0,78,0.00,,,0.00,weatherlink.com 1.10,2013-01-27 04:09:00,
2013-01-26 22:24:00,28.3,23.0,30.36,ENE,61,0.0,1.0,79,0.00,,,0.00,weatherlink.com 1.10,2013-01-27 04:24:00,
2013-01-26 22:39:00,27.5,22.0,30.35,ENE,61,0.0,1.0,81,0.00,,,0.00,weatherlink.com 1.10,2013-01-27 04:39:00,
2013-01-26 22:54:00,26.8,22.0,30.35,ENE,61,0.0,2.0,83,0.00,,,0.00,weatherlink.com 1.10,2013-01-27 04:54:00,
2013-01-26 23:24:00,25.7,22.0,30.34,NNE,26,1.0,3.0,86,0.00,,,0.00,weatherlink.com 1.10,2013-01-27 05:24:00,
2013-01-26 23:39:00,25.7,22.0,30.34,NE,44,0.0,2.0,86,0.00,,,0.00,weatherlink.com 1.10,2013-01-27 05:39:00,
2013-01-26 23:54:00,25.5,22.0,30.34,NE,51,1.0,3.0,87,0.00,,,0.00,weatherlink.com 1.10,2013-01-27 05:54:00,